Flag for Switzerland Weather past 2 weeks in Volketswil, Zurich, Switzerland

Now
64 °F

Mild.


Feels Like: 64 °F
Forecast: 47 / 73 °F
Wind: 6 mph from Northwest

Location: Zurich Town / Ville.

Current Time: May 30, 2015 at 3:26:09 PM

Latest Report: May 30, 2015 at 2:00 PM


Visibility: N/A

Pressure: 29.98 "Hg

Humidity: 56%

Dew point: 48 °F

Location of VolketswilLocation

Historic Weather in Volketswil — Graph

°F

Volketswil temperature yesterday

Maximum temperature yesterday: 75 °F (at 4:00 PM)
Minimum temperature yesterday: 52 °F (at 6:00 AM)
Average temperature yesterday: 63 °F

Past Weeks' High & Low Weather Summary

 TemperatureHumidityPressure
High75 °F (May 29, 4:00 PM)97% (May 15, 5:00 PM)30.34 "Hg (May 15, 5:00 PM)
Low41 °F (May 21, 1:00 AM)26% (May 28, 4:00 PM)29.71 "Hg (May 18, 7:00 PM)
Average54 °F74%30.07 "Hg
* Reported May 15 2:00 PM — May 30 2:00 PM, Volketswil, Weather by CustomWeather, © 2015

Note: Actual official high and low records may vary slightly from our data, if they occured in-between our weather recording intervals... More about our weather records

Advertising

Volketswil weather history for previous 24 hours

 ConditionsComfort  
Time TempWeatherWind HumidityBarometerVisibility
2:00 PM
Sat, May 30
64 °FMild.6 mph56%29.98 "HgN/A
1:00 PM64 °FMild.9 mph58%29.98 "HgN/A
12:00 PM62 °FCool.9 mph61%30.00 "HgN/A
11:00 AM60 °FCool.7 mph62%30.00 "HgN/A
10:00 AM60 °FCool.9 mph61%29.99 "HgN/A
9:00 AM59 °FCool.6 mph63%29.99 "HgN/A
8:00 AM57 °FCool.9 mph71%29.98 "HgN/A
7:00 AM56 °FCool.6 mph81%29.98 "HgN/A
6:00 AM55 °FCool.3 mph87%29.98 "HgN/A
4:00 AM55 °FCool.3 mph82%29.97 "HgN/A
3:00 AM57 °FCool.7 mph72%29.97 "HgN/A
2:00 AM56 °FCool.3 mph86%29.96 "HgN/A
1:00 AM56 °FCool.6 mph88%29.94 "HgN/A
12:00 AM62 °FRefreshingly cool.7 mph56%29.90 "HgN/A
11:00 PM
Fri, May 29
64 °FMild.8 mph43%29.88 "HgN/A
10:00 PM64 °FMild.3 mph46%29.86 "HgN/A
9:00 PM66 °FMild.8 mph42%29.83 "HgN/A
8:00 PM70 °FMild.5 mph39%29.80 "HgN/A
7:00 PM71 °FMild.6 mph42%29.78 "HgN/A
6:00 PM72 °FMild.7 mph42%29.78 "HgN/A
5:00 PM75 °FMild.9 mph35%29.77 "HgN/A
4:00 PM75 °FMild.15 mph32%29.78 "HgN/A
3:00 PM73 °FMild.12 mph36%29.80 "HgN/A
Weather by CustomWeather, © 2015

See weather overviewHow to use our weather pages